Flag for U.S.A. Weather past 2 weeks in Brattleboro, Vermont, U.S.A.

Now
50 °F

Overcast.


Feels Like: 50 °F
Forecast: 47 / 67 °F
Wind: No wind

Location: Keene / Dillant

Current Time: Sep 16, 2014 at 6:10:04 AM

Latest Report: Sep 16, 2014 at 5:35 AM


Visibility: 10 mi

Pressure: 30.06 "Hg

Humidity: 76%

Dew point: 43 °F

Location of BrattleboroLocation

Historic Weather in Brattleboro — Graph

°F

Brattleboro temperature yesterday

Maximum temperature yesterday: 63 °F (at 2:35 PM)
Minimum temperature yesterday: 37 °F (at 2:35 AM)
Average temperature yesterday: 50 °F

Past Weeks' High & Low Weather Summary

 TemperatureHumidityPressure
High88 °F (Sep 6, 1:55 PM)81% (Sep 15, 4:55 AM)30.39 "Hg (Sep 15, 4:55 AM)
Low37 °F (Sep 15, 2:35 AM)33% (Sep 7, 2:35 PM)29.73 "Hg (Sep 2, 11:35 PM)
Average63 °F64%30.10 "Hg
* Reported Sep 1 4:15 AM — Sep 16 4:55 AM, Brattleboro, Weather by CustomWeather, © 2014

Note: Actual official high and low records may vary slightly from our data, if they occured in-between our weather recording intervals... More about our weather records

Advertising

Brattleboro weather history for previous 24 hours

 ConditionsComfort  
Time TempWeatherWind HumidityBarometerVisibility
4:55 AM
Sep 16
50 °FOvercast.No wind76%30.06 "Hg10 mi
4:35 AM50 °FOvercast.5 mph76%30.06 "Hg10 mi
3:55 AM50 °FMostly cloudy.No wind76%30.06 "Hg10 mi
3:35 AM50 °FOvercast.No wind76%30.06 "Hg10 mi
3:15 AM50 °FPassing clouds.No wind76%30.07 "Hg10 mi
2:55 AM50 °FPassing clouds.No wind76%30.08 "Hg10 mi
2:35 AM50 °FPassing clouds.No wind76%30.08 "Hg10 mi
2:15 AM50 °FPassing clouds.No wind76%30.08 "Hg10 mi
1:55 AM50 °FPassing clouds.No wind76%30.07 "Hg10 mi
1:35 AM50 °FPassing clouds.No wind76%30.10 "Hg10 mi
1:15 AM50 °FPassing clouds.No wind76%30.09 "Hg10 mi
12:55 AM50 °FPassing clouds.No wind76%30.10 "Hg10 mi
12:35 AM50 °FPassing clouds.No wind76%30.10 "Hg10 mi
12:15 AM50 °FPassing clouds.No wind76%30.11 "Hg10 mi
11:55 PM
Sep 15
50 °FPassing clouds.No wind76%30.12 "Hg10 mi
11:35 PM48 °FPassing clouds.No wind76%30.11 "Hg10 mi
11:15 PM48 °FClear.No wind76%30.11 "Hg10 mi
10:55 PM48 °FClear.No wind76%30.11 "Hg10 mi
10:35 PM52 °FClear.No wind72%30.11 "Hg10 mi
10:15 PM52 °FClear.No wind72%30.11 "Hg10 mi
9:15 PM52 °FClear.No wind72%30.13 "Hg10 mi
8:55 PM52 °FClear.No wind72%30.13 "Hg10 mi
8:35 PM54 °FPassing clouds.No wind72%30.14 "Hg10 mi
8:15 PM54 °FPassing clouds.No wind67%30.13 "Hg10 mi
7:55 PM54 °FOvercast.No wind67%30.14 "Hg10 mi
7:35 PM54 °FScattered clouds.No wind67%30.13 "Hg10 mi
7:15 PM54 °FSunny.No wind67%30.12 "Hg10 mi
6:55 PM55 °FSunny.3 mph63%30.13 "Hg10 mi
6:35 PM57 °FSunny.No wind63%30.12 "Hg10 mi
6:15 PM61 °FSunny.No wind45%30.12 "Hg10 mi
5:55 PM63 °FSunny.3 mph39%30.12 "Hg10 mi
5:35 PM63 °FSunny.3 mph39%30.12 "Hg10 mi
5:15 PM63 °FSunny.No wind37%30.13 "Hg10 mi
4:55 PM63 °FSunny.6 mph37%30.13 "Hg10 mi
4:35 PM63 °FSunny.5 mph37%30.13 "Hg10 mi
4:15 PM63 °FSunny.3 mph39%30.14 "Hg10 mi
3:55 PM63 °FSunny.3 mph37%30.14 "Hg10 mi
3:35 PM63 °FSunny.3 mph37%30.15 "Hg10 mi
3:15 PM63 °FSunny.8 mph37%30.15 "Hg10 mi
2:55 PM63 °FPassing clouds.No wind39%30.16 "Hg10 mi
2:35 PM63 °FPartly sunny.No wind37%30.15 "Hg10 mi
1:55 PM61 °FScattered clouds.No wind42%30.17 "Hg10 mi
1:35 PM61 °FScattered clouds.5 mph42%30.18 "Hg10 mi
1:15 PM61 °FPartly sunny.6 mph42%30.19 "Hg10 mi
12:55 PM59 °FPassing clouds.No wind45%30.20 "Hg10 mi
12:35 PM59 °FPassing clouds.7 mph45%30.20 "Hg10 mi
12:15 PM59 °FSunny.3 mph45%30.20 "Hg10 mi
11:55 AM57 °FSunny.5 mph48%30.21 "Hg10 mi
11:35 AM55 °FSunny.3 mph55%30.22 "Hg10 mi
11:15 AM54 °FSunny.No wind54%30.23 "Hg10 mi
10:55 AM52 °FSunny.No wind58%30.24 "Hg10 mi
10:15 AM48 °FOvercast.No wind66%30.24 "Hg10 mi
9:55 AM48 °FOvercast.No wind66%30.25 "Hg10 mi
9:35 AM46 °FOvercast.No wind66%30.25 "Hg10 mi
9:15 AM46 °FOvercast.No wind66%30.25 "Hg10 mi
8:55 AM45 °FOvercast.No wind71%30.26 "Hg10 mi
8:35 AM45 °FOvercast.3 mph71%30.26 "Hg10 mi
7:55 AM43 °FLow clouds.No wind76%30.25 "Hg10 mi
7:35 AM43 °FMore clouds than sun.No wind71%30.26 "Hg10 mi
6:55 AM41 °FOvercast.No wind76%30.26 "Hg10 mi
6:35 AM41 °FOvercast.No wind76%30.26 "Hg10 mi
6:15 AM41 °FOvercast.3 mph76%30.27 "Hg10 mi
Weather by CustomWeather, © 2014

See weather overviewHow to use our weather pages